STARLINK-32770, 62741

Orbit data source: Space-Track

STARLINK-32770, 62741 is a payload satellite owned by SpaceX/Seattle (US) in LEO that was launched on Tue, 21 Jan 2025 UTC via an FALCON 9 launch vehicle from the Air Force Eastern Test Range (AFETR). Payload-class satellites include a variety of spacecraft equipped with specific instruments for various scientific and technological missions. These include communications satellites like Starlink; space stations such as the ISS; scientific satellites like the Hubble; Earth observation satellites from companies like Planet Labs, Umbra, and HawkEye 360; GPS; miniature CubeSats for education and research; and military/defense satellites.

Loading next visibility...
Identifier
62741, 2025-014G
Orbit
LEO
Country
Flag of USUS
Related business
Manufacturer
SpaceX/Seattle
Mission
Operational Commercial Communications
Bus & Motor
STARLINK V2M, Unknown motor
Mass
730 kg wet, ~700 kg dry
Launch date (UTC)
2025-01-21 (11 months ago)
Launch vehicle
FALCON 9
Launch site
Air Force Eastern Test Range (AFETR)
Object type
Payload
Rocket body
Debris
Shape & HBR
Box + 2 Pan, 17.7 m
Radar Cross Section
33.884 m², Large (>1 m²)

Expand to show TLE details & history
Last TLE update: 19 hours ago

TLE from 19 hours ago
0 STARLINK-32770
1 62741U 25014G   25348.84309816  .00030196  00000-0  11034-2 0  9993
2 62741  42.9995 273.3539 0000937 296.6037  63.4719 15.27548979 50286
Epoch: 2025-12-14T20:14Z
TLE epoch observation values (Epoch: 2025-12-14T20:14:03.681Z)
Latitude
0.00003°
Longitude
-113.91161°
Altitude
482.63 km
Speed
7.626 km/s
True Right ascension
18h 13m 24s
True Declination
0° 00' 00"
Sunlit
Object was in daylight at epoch
Visualization orbit readout
Latitude
Unknown
Longitude
Unknown
Altitude
Unknown
Speed
Unknown
Apparent Right ascension
Unknown
Apparent Declination
Unknown
Sunlit
N/A
Visualization observer readout
Local Sidereal Time
13:24:34
Azimuth
Unknown
Elevation
Unknown
Doppler factor
Unknown
Orbital elements
Apogee altitude
485.73 km
Perigee altitude
484.444 km
Semi-major axis
6,863.224 km
Eccentricity
0.00009
Inclination
42.9995°
RAAN
273.3539°
Arg. of periapsis
296.6037°
True anomaly
63.48151°
Mean anomaly
63.4719°
Eccentric anomaly
63.4767°
Mean motion
3.81725 °/min
Orbital period
94.31 mins
BSTAR
0.0011034
Loading maneuver chart data...
Computing Atmospheric mass density...
Loading historical data...
Loading historical data...
Loading historical data...
Loading historical data...
Loading historical data...
Loading historical data...
Loading historical data...

Documentation

Showing up to 5 results
|